EW9434 Weather Reports


time (UTC)temp
C
wind
direction
speed
KPH
gust
KPH
rain 1hr
cm
rain 24hr
cm
rain mn
cm
humidity
%
barometer
mb
20260502213109 11 273 6.4 17.7 0.00 0.00 0.00 41 1015.9
20260502213017 11 273 4.8 11.3 0.00 0.00 0.00 42 1016.7
20260502212607 12 299 6.4 17.7 0.00 0.00 0.00 38 1015.8
20260502212039 12 144 4.8 16.1 0.00 0.00 0.00 46 1015.9
20260502211539 11 288 4.8 14.5 0.00 0.00 0.00 42 1015.9
20260502211507 11 288 6.4 14.5 0.00 0.00 0.00 42 1016.7
20260502211011 11 273 4.8 9.7 0.00 0.00 0.00 42 1015.8
20260502210507 11 273 4.8 9.7 0.00 0.00 0.00 42 1015.9
20260502210119 11 273 3.2 14.5 0.00 0.00 0.00 42 1016.6
20260502205941 11 287 4.8 14.5 0.00 0.00 0.00 42 1015.8
20260502205436 12 282 4.8 14.5 0.00 0.00 0.00 40 1015.8
20260502204913 11 288 4.8 14.5 0.00 0.00 0.00 44 1015.8
20260502204819 11 288 4.8 14.5 0.00 0.00 0.00 42 1015.9
20260502204512 11 286 3.2 14.5 0.00 0.00 0.00 42 1016.6
20260502203842 11 273 6.4 16.1 0.00 0.00 0.00 45 1015.9
20260502203328 11 273 4.8 16.1 0.00 0.00 0.00 42 1015.9
20260502203018 11 291 6.4 16.1 0.00 0.00 0.00 41 1016.7
20260502202827 11 287 4.8 17.7 0.00 0.00 0.00 42 1015.9
20260502202516 11 288 6.4 17.7 0.00 0.00 0.00 42 1016.0
20260502202025 11 288 4.8 17.7 0.00 0.00 0.00 43 1016.0
20260502201531 11 286 4.8 9.7 0.00 0.00 0.00 42 1016.8
20260502201457 12 282 4.8 19.3 0.00 0.00 0.00 40 1016.0
20260502200706 11 289 6.4 19.3 0.00 0.00 0.00 40 1016.1
20260502200138 11 286 6.4 17.7 0.00 0.00 0.00 44 1016.1
20260502200050 11 288 6.4 16.1 0.00 0.00 0.00 41 1016.9
20260502195900 11 286 6.4 19.3 0.00 0.00 0.00 43 1016.1
20260502195135 12 287 6.4 19.3 0.00 0.00 0.00 40 1016.2
20260502194631 12 224 4.8 14.5 0.00 0.00 0.00 40 1016.2
20260502194609 12 223 4.8 14.5 0.00 0.00 0.00 39 1017.0
20260502194106 12 144 6.4 14.5 0.00 0.00 0.00 41 1016.2
20260502193558 12 314 4.8 14.5 0.00 0.00 0.00 40 1016.2
20260502193057 12 284 4.8 12.9 0.00 0.00 0.00 41 1016.2
20260502193025 12 284 4.8 11.3 0.00 0.00 0.00 41 1017.0
20260502192531 12 284 4.8 12.9 0.00 0.00 0.00 41 1016.2
20260502192223 12 282 4.8 12.9 0.00 0.00 0.00 39 1016.4
20260502191514 12 262 4.8 12.9 0.00 0.00 0.00 42 1017.2
20260502191437 12 209 4.8 12.9 0.00 0.00 0.00 41 1016.4
20260502190912 12 289 4.8 17.7 0.00 0.00 0.00 42 1016.3
20260502190346 11 288 6.4 17.7 0.00 0.00 0.00 41 1016.4
20260502190056 11 288 4.8 17.7 0.00 0.00 0.00 39 1017.3
20260502185823 12 289 6.4 16.1 0.00 0.00 0.00 39 1016.5
20260502185543 12 285 4.8 16.1 0.00 0.00 0.00 39 1016.6
20260502184758 12 288 4.8 14.5 0.00 0.00 0.00 42 1016.5
20260502184510 12 288 3.2 14.5 0.00 0.00 0.00 43 1017.3
20260502184250 12 286 4.8 14.5 0.00 0.00 0.00 39 1016.6
20260502183749 12 182 4.8 12.9 0.00 0.00 0.00 42 1016.6
20260502183225 12 284 4.8 16.1 0.00 0.00 0.00 44 1016.6
20260502183043 11 287 3.2 16.1 0.00 0.00 0.00 41 1017.4
20260502182927 11 286 6.4 16.1 0.00 0.00 0.00 43 1016.6
20260502182201 12 288 6.4 17.7 0.00 0.00 0.00 39 1016.7
20260502181637 12 288 6.4 17.7 0.00 0.00 0.00 42 1016.6
20260502181528 11 282 6.4 17.7 0.00 0.00 0.00 40 1017.5
20260502181111 11 288 6.4 24.1 0.00 0.00 0.00 42 1016.7
20260502180549 11 290 4.8 24.1 0.00 0.00 0.00 44 1016.7
20260502170310 11 273 6.4 19.3 0.00 0.00 0.00 46 1017.2
20260502164227 11 288 4.8 12.9 0.00 0.00 0.00 46 1017.3
20260502163712 11 278 4.8 12.9 0.00 0.00 0.00 45 1017.4
20260502163210 11 288 4.8 12.9 0.00 0.00 0.00 47 1017.5
20260502163052 10 278 3.2 12.9 0.00 0.00 0.00 47 1018.2
20260502162710 10 288 6.4 12.9 0.00 0.00 0.00 45 1017.5
20260502162143 10 287 6.4 12.9 0.00 0.00 0.00 46 1017.6
20260502161618 11 286 6.4 12.9 0.00 0.00 0.00 46 1017.6
20260502161548 10 286 4.8 12.9 0.00 0.00 0.00 45 1018.3
20260502161058 11 282 4.8 12.9 0.00 0.00 0.00 47 1017.5
20260502161028 11 273 4.8 14.5 0.00 0.00 0.00 47 1017.7
20260502151840 10 288 6.4 14.5 0.00 0.00 0.00 47 1017.8
20260502151633 9 278 8.0 14.5 0.00 0.00 0.00 48 1018.5
20260502151338 10 288 4.8 8.0 0.00 0.00 0.00 49 1017.7
20260502150821 10 282 4.8 8.0 0.00 0.00 0.00 49 1017.7
20260502150309 10 288 6.4 14.5 0.00 0.00 0.00 48 1017.7
20260502130304 6 291 3.2 8.0 0.00 0.08 0.00 59 1017.5
20260502123723 5 282 1.6 4.8 0.00 0.08 0.00 73 1017.5
20260502123223 5 282 1.6 11.3 0.00 0.08 0.00 73 1017.6
20260502123048 5 282 0.0 9.7 0.00 0.08 0.00 73 1018.2
20260502122659 5 282 3.2 9.7 0.00 0.08 0.00 74 1017.6
20260502122133 5 282 3.2 9.7 0.00 0.08 0.00 74 1017.3
20260502121602 5 282 1.6 6.4 0.00 0.08 0.00 76 1017.4
20260502121510 5 282 1.6 6.4 0.00 0.08 0.00 76 1018.1
20260502121321 5 282 1.6 4.8 0.00 0.08 0.00 76 1017.5
20260502120534 5 282 1.6 8.0 0.00 0.08 0.00 77 1017.4
20260502115524 4 282 1.6 8.0 0.00 0.08 0.00 81 1017.4
20260502114958 3 282 0.0 1.6 0.00 0.08 0.00 82 1017.3
20260502114924 3 282 0.0 3.2 0.00 0.08 0.00 82 1017.2
20260502114504 3 282 0.0 3.2 0.00 0.08 0.00 82 1017.9
20260502113904 3 282 0.0 3.2 0.00 0.08 0.00 82 1017.2
20260502113403 3 282 0.0 0.0 0.00 0.08 0.00 81 1017.2
20260502113002 3 282 0.0 0.0 0.00 0.08 0.00 81 1017.7
20260502112835 3 282 0.0 1.6 0.00 0.08 0.00 82 1017.1
20260502112332 3 282 0.0 1.6 0.00 0.08 0.00 82 1017.1
20260502111806 3 283 0.0 1.6 0.00 0.08 0.00 81 1017.0
20260502111725 3 283 0.0 3.2 0.00 0.08 0.00 80 1016.8
20260502111516 3 283 0.0 1.6 0.00 0.08 0.00 81 1017.6
20260502110736 3 283 0.0 3.2 0.00 0.08 0.00 80 1016.7
20260502110208 3 283 1.6 4.8 0.00 0.08 0.00 80 1016.6
20260502110008 3 282 0.0 4.8 0.00 0.08 0.00 80 1017.2
20260502105707 3 283 1.6 4.8 0.00 0.08 0.00 80 1016.4
20260502105138 3 282 0.0 3.2 0.00 0.08 0.00 81 1016.4
20260502104636 3 282 0.0 1.6 0.00 0.08 0.00 81 1016.6
20260502104606 3 283 0.0 1.6 0.00 0.08 0.00 81 1017.3
20260502104107 3 282 0.0 1.6 0.00 0.08 0.00 81 1016.6
20260502103607 3 282 0.0 1.6 0.00 0.08 0.00 82 1016.6
20260502103102 3 282 0.0 0.0 0.00 0.08 0.00 82 1016.6
20260502103010 3 282 0.0 0.0 0.00 0.08 0.00 82 1017.4
20260502102602 4 282 0.0 1.6 0.00 0.08 0.00 82 1016.6
20260502102034 3 282 0.0 1.6 0.00 0.08 0.00 81 1016.6
20260502101548 3 282 0.0 0.0 0.00 0.08 0.00 81 1017.3
20260502101509 3 282 0.0 1.6 0.00 0.08 0.00 81 1016.6
20260502101206 3 282 0.0 3.2 0.00 0.08 0.00 81 1016.6
20260502100439 3 282 0.0 3.2 0.00 0.08 0.00 81 1016.6
20260502091531 3 282 0.0 3.2 0.00 0.08 0.00 77 1017.2
20260502091426 3 282 1.6 3.2 0.00 0.08 0.00 77 1016.5
20260502090703 3 283 1.6 3.2 0.00 0.08 0.00 77 1016.5
20260502090157 3 283 0.0 3.2 0.00 0.08 0.00 77 1016.6
20260502090132 3 283 0.0 3.2 0.00 0.08 0.00 77 1017.3
20260502071515 5 282 3.2 9.7 0.00 0.08 0.00 70 1017.0
20260502071237 5 282 4.8 11.3 0.00 0.08 0.00 69 1016.3
20260502070737 5 282 4.8 11.3 0.00 0.08 0.00 69 1016.2
20260502070210 6 282 4.8 11.3 0.00 0.08 0.00 69 1016.2
20260502070030 5 282 1.6 9.7 0.00 0.08 0.00 70 1016.9
20260502065905 6 282 3.2 9.7 0.00 0.08 0.00 70 1016.2
20260502065119 6 282 3.2 11.3 0.00 0.08 0.00 70 1016.3
20260502064618 6 273 3.2 14.5 0.00 0.08 0.00 70 1016.3
20260502064606 5 282 3.2 9.7 0.00 0.08 0.00 70 1016.9
20260502064053 6 282 4.8 14.5 0.00 0.08 0.00 70 1016.4
20260502063529 6 282 3.2 14.5 0.00 0.08 0.00 70 1016.5
20260502063034 5 282 3.2 8.0 0.00 0.08 0.00 71 1017.2
20260502063013 6 282 3.2 8.0 0.00 0.08 0.00 71 1016.6
20260502062439 6 282 3.2 8.0 0.00 0.08 0.00 72 1016.6
20260502061913 6 282 3.2 8.0 0.00 0.08 0.00 72 1016.7
20260502061635 6 282 1.6 4.8 0.00 0.08 0.00 73 1016.8
20260502061614 6 282 1.6 6.4 0.00 0.08 0.00 73 1017.4
20260502060848 6 282 3.2 4.8 0.00 0.08 0.00 73 1017.1
20260502060347 6 282 1.6 4.8 0.00 0.08 0.00 72 1017.1
20260502060030 6 282 1.6 3.2 0.00 0.08 0.00 72 1017.6
20260502055846 6 282 1.6 4.8 0.00 0.08 0.00 72 1017.1
20260502055610 6 282 1.6 4.8 0.00 0.08 0.00 72 1017.1
20260502054841 6 282 1.6 3.2 0.00 0.08 0.00 72 1017.1
20260502054550 6 282 1.6 6.4 0.00 0.08 0.00 72 1017.6
20260502054311 6 282 1.6 6.4 0.00 0.08 0.00 72 1017.1
20260502053813 6 282 1.6 4.8 0.00 0.08 0.00 72 1017.0
20260502053250 6 283 1.6 6.4 0.00 0.08 0.00 73 1017.0
20260502053057 6 283 0.0 6.4 0.00 0.08 0.00 73 1017.6
20260502052748 6 283 1.6 6.4 0.00 0.08 0.00 74 1017.0
20260502052229 6 283 1.6 6.4 0.00 0.08 0.00 75 1017.0
20260502051729 6 283 1.6 3.2 0.00 0.08 0.00 76 1017.0
20260502051506 6 283 1.6 3.2 0.00 0.08 0.00 77 1017.5
20260502051225 6 283 1.6 3.2 0.00 0.08 0.00 77 1017.0
20260502050731 6 283 1.6 3.2 0.00 0.08 0.00 79 1017.0
20260502050217 6 283 1.6 3.2 0.00 0.08 0.00 79 1017.0
20260502050040 5 283 1.6 3.2 0.00 0.08 0.00 80 1017.5
20260502045707 6 283 1.6 3.2 0.00 0.08 0.00 80 1017.0
20260502045205 5 283 1.6 3.2 0.00 0.08 0.00 80 1017.0
20260502044643 5 283 0.0 1.6 0.00 0.08 0.00 79 1017.0
20260502044506 5 283 0.0 1.6 0.00 0.08 0.00 79 1017.6
20260502044118 5 283 0.0 1.6 0.00 0.08 0.00 79 1017.1
20260502043551 5 283 0.0 0.0 0.00 0.08 0.00 78 1017.2
20260502043107 5 283 0.0 0.0 0.00 0.08 0.00 78 1017.7
20260502043034 5 283 0.0 0.0 0.00 0.08 0.00 78 1017.2
20260502042532 5 283 0.0 0.0 0.00 0.08 0.00 78 1017.1
20260502042033 6 283 0.0 0.0 0.00 0.08 0.00 77 1017.1
20260502041745 6 283 0.0 0.0 0.00 0.08 0.00 77 1017.1
20260502041558 5 283 0.0 0.0 0.00 0.08 0.00 77 1017.6
20260502040949 6 283 0.0 0.0 0.00 0.08 0.00 77 1017.1
20260502040428 6 283 0.0 0.0 0.00 0.08 0.00 77 1016.8
20260502040051 6 283 0.0 1.6 0.00 0.08 0.00 77 1017.4
20260502035921 6 283 0.0 1.6 0.00 0.08 0.08 77 1017.0
20260502035415 6 283 0.0 1.6 0.00 0.08 0.08 76 1017.0
20260502035143 6 283 0.0 1.6 0.00 0.08 0.08 76 1017.0
20260502034540 6 283 0.0 1.6 0.00 0.08 0.08 76 1017.5
20260502034347 6 283 0.0 1.6 0.00 0.08 0.08 76 1017.1
20260502034102 6 283 0.0 1.6 0.00 0.08 0.08 75 1017.1
20260502033341 7 283 1.6 3.2 0.00 0.08 0.08 75 1017.1
20260502033056 6 283 0.0 3.2 0.00 0.08 0.08 75 1017.6
20260502032817 7 283 1.6 3.2 0.00 0.08 0.08 75 1017.0
20260502032246 7 283 1.6 3.2 0.00 0.08 0.08 74 1017.1
20260502031744 7 283 1.6 3.2 0.00 0.08 0.08 74 1017.1
20260502031519 7 283 0.0 3.2 0.00 0.08 0.08 74 1017.5
20260502031219 7 283 1.6 4.8 0.00 0.08 0.08 73 1017.0
20260502030653 7 283 1.6 4.8 0.00 0.08 0.08 73 1016.8
20260502030345 7 283 1.6 4.8 0.00 0.08 0.08 73 1016.8
20260502030031 7 283 1.6 4.8 0.00 0.08 0.08 73 1017.3
20260502025621 7 283 1.6 4.8 0.00 0.08 0.08 72 1016.8
20260502025115 7 283 1.6 3.2 0.00 0.08 0.08 72 1016.7
20260502024614 7 283 1.6 4.8 0.00 0.08 0.08 72 1016.7
20260502024606 7 283 1.6 4.8 0.00 0.08 0.08 72 1017.3
20260502024109 7 284 1.6 4.8 0.00 0.08 0.08 71 1016.7
20260502023541 7 284 1.6 3.2 0.00 0.08 0.08 70 1016.7
20260502023235 7 284 1.6 3.2 0.00 0.08 0.08 70 1016.6
20260502023055 7 284 0.0 3.2 0.00 0.08 0.08 70 1017.2
20260502022447 8 288 0.0 3.2 0.00 0.08 0.08 69 1016.5
20260502021947 8 283 0.0 3.2 0.00 0.08 0.08 68 1016.5
20260502021550 7 283 0.0 3.2 0.00 0.08 0.08 68 1017.1
20260502021416 8 283 0.0 3.2 0.00 0.08 0.08 68 1016.5
20260502020915 8 283 0.0 1.6 0.00 0.08 0.08 68 1016.4
20260502020349 8 283 1.6 3.2 0.00 0.08 0.08 69 1016.5
20260502020004 8 283 0.0 3.2 0.00 0.08 0.08 68 1017.0
20260502015845 8 283 1.6 3.2 0.00 0.08 0.08 68 1016.3
20260502015345 8 283 1.6 3.2 0.00 0.08 0.08 67 1016.2
20260502014816 8 283 0.0 3.2 0.00 0.08 0.08 66 1016.1
20260502014502 8 283 0.0 4.8 0.00 0.08 0.08 66 1016.6
20260502014314 8 283 1.6 4.8 0.00 0.08 0.08 66 1016.0
20260502013747 8 283 1.6 4.8 0.00 0.08 0.08 66 1015.9
20260502013223 8 283 1.6 4.8 0.00 0.08 0.08 66 1015.9
20260502013047 8 283 0.0 4.8 0.00 0.08 0.08 66 1016.5
20260502012655 8 283 1.6 4.8 0.00 0.08 0.08 66 1015.8
20260502012128 8 283 0.0 3.2 0.00 0.08 0.08 66 1015.8
20260502011624 8 283 1.6 3.2 0.00 0.08 0.08 64 1015.8
20260502011601 8 283 0.0 3.2 0.00 0.08 0.08 64 1016.3
20260502011125 8 283 1.6 4.8 0.00 0.08 0.08 65 1015.6
20260502010823 8 283 1.6 4.8 0.00 0.08 0.08 65 1015.4
20260502010032 8 283 1.6 3.2 0.00 0.08 0.08 66 1015.3
20260502010002 8 283 1.6 3.2 0.00 0.08 0.08 66 1015.8
20260502005503 8 283 0.0 1.6 0.00 0.08 0.08 65 1015.3
20260502004936 8 282 0.0 1.6 0.00 0.08 0.08 65 1015.2
20260502004510 8 283 0.0 1.6 0.00 0.08 0.08 65 1015.6
20260502004429 9 282 0.0 1.6 0.00 0.08 0.08 65 1015.0
20260502004128 9 283 0.0 1.6 0.00 0.08 0.08 65 1014.9
20260502003335 9 283 0.0 1.6 0.00 0.08 0.08 64 1014.7
20260502003022 9 282 0.0 1.6 0.00 0.08 0.08 63 1015.1
20260502002835 10 282 0.0 1.6 0.00 0.08 0.08 63 1014.5
20260502002307 10 282 0.0 3.2 0.00 0.08 0.08 64 1014.4
20260502001737 10 283 1.6 3.2 0.00 0.08 0.08 61 1014.3
20260502001535 10 283 0.0 3.2 0.00 0.08 0.08 61 1014.9
20260502001235 10 284 1.6 3.2 0.00 0.08 0.08 60 1014.4
20260502000948 10 286 1.6 6.4 0.00 0.08 0.08 60 1014.5
20260502000229 11 287 1.6 6.4 0.00 0.08 0.08 58 1014.6
20260502000050 10 288 3.2 6.4 0.00 0.08 0.08 58 1015.1
20260501235950 11 283 1.6 4.8 0.00 0.08 0.08 59 1014.7
20260501235222 11 278 1.6 4.8 0.00 0.08 0.08 59 1014.8
20260501234657 11 282 1.6 4.8 0.00 0.08 0.08 58 1014.7
20260501234517 11 282 1.6 4.8 0.00 0.08 0.08 58 1015.2
20260501234129 11 282 3.2 6.4 0.00 0.08 0.08 56 1014.5
20260501233627 11 282 3.2 8.0 0.00 0.08 0.08 57 1014.6
20260501233100 11 288 3.2 8.0 0.00 0.08 0.08 57 1014.6
20260501233008 11 288 1.6 8.0 0.00 0.08 0.08 56 1015.1
20260501232559 11 282 3.2 11.3 0.00 0.08 0.08 57 1014.6
20260501232030 11 282 3.2 11.3 0.00 0.08 0.08 57 1014.5
20260501231528 11 282 1.6 4.8 0.00 0.08 0.08 59 1014.6
20260501231000 11 282 3.2 6.4 0.00 0.08 0.08 57 1014.6
20260501230457 11 290 3.2 11.3 0.00 0.08 0.08 56 1014.6
20260501230100 11 282 1.6 9.7 0.00 0.08 0.08 55 1015.0
20260501225928 12 282 3.2 11.3 0.00 0.08 0.08 56 1014.5
20260501225429 12 282 4.8 12.9 0.00 0.08 0.08 56 1014.4
20260501224910 12 282 4.8 12.9 0.00 0.08 0.08 54 1014.4
20260501224553 11 290 4.8 12.9 0.00 0.08 0.08 52 1014.9
20260501224414 12 288 4.8 14.5 0.00 0.08 0.08 51 1014.3
20260501223844 11 290 4.8 14.5 0.00 0.08 0.08 51 1014.3
20260501223343 11 287 4.8 14.5 0.00 0.08 0.08 52 1014.4
20260501223102 11 287 3.2 14.5 0.00 0.08 0.08 53 1014.9
20260501222814 12 286 3.2 14.5 0.00 0.08 0.08 50 1014.5
20260501222312 12 311 4.8 14.5 0.00 0.08 0.08 56 1014.5
20260501221809 11 291 4.8 14.5 0.00 0.08 0.08 56 1014.4
20260501221607 11 273 4.8 14.5 0.00 0.08 0.08 54 1014.9
20260501221308 11 273 4.8 12.9 0.00 0.08 0.08 56 1014.5
20260501220740 11 273 6.4 17.7 0.00 0.08 0.08 51 1014.5
20260501220239 11 286 6.4 17.7 0.00 0.08 0.08 53 1014.4
20260501220058 11 288 6.4 17.7 0.00 0.08 0.08 54 1014.9
20260501215935 11 282 4.8 14.5 0.00 0.08 0.08 53 1014.4
20260501215144 12 288 4.8 14.5 0.00 0.08 0.08 54 1014.5
20260501214904 12 288 4.8 14.5 0.00 0.08 0.08 53 1014.5
20260501214502 12 288 4.8 14.5 0.00 0.08 0.08 54 1015.0
20260501214126 12 197 4.8 12.9 0.00 0.08 0.08 56 1014.4
20260501213626 12 74 6.4 14.5 0.00 0.08 0.08 58 1014.4
20260501213615 11 288 4.8 14.5 0.00 0.08 0.08 57 1014.4